Location: Pettit
(39.0209°N, 79.7181°W)
Time: 05:01:22
(UTC+00:00)

ISS - Pass Details

Date: 22 April 2026
Orbit: 414 x 424 km, 51.6° (Epoch: 15 May)

Event Time Altitude Azimuth Distance (km) Brightness Sun altitude
Exits shadow 08:08:49 32° 68° (ENE) 750 -2.0 -25.0°
Drops below altitude 10° 08:10:47 10° 57° (ENE) 1,500 0.1 -24.7°
Sets 08:12:54 0° 54° (NE) 2,369 1.5 -24.4°
